Terminal Aerodrome Forecast
Issued by NWS

Home | Current Version | Previous Version | Text Only | Print | Product List | Glossary On
Versions: 1 2 3 4 5 6 7 8 9 10 11 12 13 14 15 16 17 18
000
FTUS43 KMQT 210521
TAFSAW
TAF
KSAW 210521Z 2106/2206 31005KT P6SM SCT015
      TEMPO 2106/2110 2SM BR BKN015
     FM211000 01005KT 1 1/2SM BR FEW010
     FM211300 02005KT 2SM BR FEW020
     FM211500 03005KT P6SM FEW120
     FM220100 12004KT P6SM SCT045
     FM220400 17005KT 5SM BR BKN010=

USA.gov is the U.S. government's official web portal to all federal, state and local government web resources and services.